Photometre #846[NE_1.6_Dp] Glasgow_MO AOT

File : 20200925_846.hum

25/09/2020,07:14:42,TEMP=7.2,BA=5.68,STAT.A,ExtBa=12.40
25/09/2020,07:19:23,TEMP=7.5,BA=5.68,STAT.A,ExtBa=12.30
25/09/2020,07:24:54,TEMP=7.8,BA=5.64,STAT.A,ExtBa=12.30
25/09/2020,07:31:28,TEMP=7.9,BA=5.68,STAT.A,ExtBa=12.30
25/09/2020,07:39:27,TEMP=8.1,BA=5.68,STAT.A,ExtBa=12.30
25/09/2020,07:49:22,TEMP=8.4,BA=5.64,STAT.A,ExtBa=12.30
25/09/2020,08:02:02,TEMP=8.9,BA=5.68,STAT.B,ExtBa=12.30
25/09/2020,08:11:33,TEMP=9.9,BA=5.64,STAT.A,ExtBa=12.10
25/09/2020,08:15:06,TEMP=9.7,BA=5.64,STAT.A,ExtBa=12.20
25/09/2020,08:23:00,TEMP=9.9,BA=5.68,STAT.A,ExtBa=12.30
25/09/2020,08:32:06,TEMP=10.4,BA=5.68,STAT.A,ExtBa=12.30
25/09/2020,08:42:44,TEMP=10.8,BA=5.68,STAT.C,ExtBa=12.30
25/09/2020,08:52:15,TEMP=11.7,BA=5.64,STAT.b=5.0
25/09/2020,08:55:41,TEMP=11.5,BA=5.64,STAT.A,ExtBa=12.20
25/09/2020,09:10:11,TEMP=12.0,BA=5.64,STAT.F,ExtBa=12.30
25/09/2020,09:34:13,TEMP=13.7,BA=5.60,STAT.b=5.0
25/09/2020,09:34:48,TEMP=13.7,BA=5.60,STAT.b=5.0
25/09/2020,09:40:09,TEMP=13.3,BA=5.64,STAT.D,ExtBa=12.20
25/09/2020,09:55:10,TEMP=13.7,BA=5.68,STAT.D,ExtBa=12.20
25/09/2020,10:10:12,TEMP=14.5,BA=5.64,STAT.F,ExtBa=12.20
25/09/2020,10:36:07,TEMP=15.4,BA=5.60,STAT.D,ExtBa=12.10
25/09/2020,10:40:10,TEMP=15.3,BA=5.64,STAT.D,ExtBa=12.10
25/09/2020,10:55:10,TEMP=15.2,BA=5.64,STAT.D,ExtBa=12.20
25/09/2020,11:10:12,TEMP=14.2,BA=5.64,STAT.F,ExtBa=12.20
25/09/2020,11:25:10,TEMP=13.9,BA=5.64,STAT.D,ExtBa=12.20
25/09/2020,11:40:10,TEMP=13.3,BA=5.64,STAT.D,ExtBa=12.30
25/09/2020,11:55:10,TEMP=13.0,BA=5.64,STAT.D,ExtBa=12.30
25/09/2020,12:10:12,TEMP=13.2,BA=5.64,STAT.F,ExtBa=12.30
25/09/2020,12:25:10,TEMP=13.2,BA=5.64,STAT.D,ExtBa=12.20
25/09/2020,12:40:10,TEMP=14.7,BA=5.64,STAT.D,ExtBa=12.20
25/09/2020,12:55:10,TEMP=15.1,BA=5.64,STAT.D,ExtBa=12.20
25/09/2020,13:10:12,TEMP=14.1,BA=5.64,STAT.F,ExtBa=12.30
25/09/2020,13:34:40,TEMP=16.0,BA=5.56,STAT.D,ExtBa=12.10
25/09/2020,13:40:10,TEMP=15.4,BA=5.60,STAT.D,ExtBa=12.10
25/09/2020,13:55:10,TEMP=15.4,BA=5.64,STAT.D,ExtBa=12.20
25/09/2020,14:10:12,TEMP=15.5,BA=5.60,STAT.F,ExtBa=12.20
25/09/2020,14:34:30,TEMP=16.6,BA=5.56,STAT.D,ExtBa=12.10
25/09/2020,14:40:10,TEMP=15.9,BA=5.60,STAT.D,ExtBa=12.10
25/09/2020,14:55:10,TEMP=15.2,BA=5.64,STAT.D,ExtBa=12.20
25/09/2020,15:10:11,TEMP=14.3,BA=5.60,STAT.F,ExtBa=12.20
25/09/2020,15:24:58,TEMP=12.4,BA=5.64,STAT.A,ExtBa=12.20
25/09/2020,15:37:38,TEMP=11.9,BA=5.64,STAT.C,ExtBa=12.20
25/09/2020,16:03:08,TEMP=12.1,BA=5.56,STAT.A,ExtBa=12.10
25/09/2020,16:06:18,TEMP=11.5,BA=5.56,STAT.A,ExtBa=12.10
25/09/2020,16:08:26,TEMP=11.5,BA=5.56,STAT.A,ExtBa=12.10
25/09/2020,16:12:11,TEMP=11.2,BA=5.56,STAT.A,ExtBa=12.10
25/09/2020,16:18:20,TEMP=11.5,BA=5.56,STAT.B,ExtBa=12.20
25/09/2020,16:31:00,TEMP=11.4,BA=5.64,STAT.A,ExtBa=12.10
25/09/2020,16:40:55,TEMP=11.3,BA=5.64,STAT.A,ExtBa=12.20
25/09/2020,16:48:54,TEMP=11.5,BA=5.64,STAT.A,ExtBa=12.20
25/09/2020,16:55:28,TEMP=11.5,BA=5.60,STAT.A,ExtBa=12.20
25/09/2020,17:00:59,TEMP=11.3,BA=5.68,STAT.A,ExtBa=12.20
25/09/2020,17:05:40,TEMP=11.3,BA=5.68,STAT.A,ExtBa=12.20